Location: Sternwarte ZA, Rosenfeld-Brittheim
(48.2889°N, 8.6789°E)
Time: 06:08:32
(UTC+01:00)

ISS - Pass Details

Date: 22 February 2020
Orbit: 415 x 423 km, 51.6° (Epoch: 27 February)

Event Time Altitude Azimuth Distance (km) Brightness Sun altitude
Rises 06:40:48 0° 219° (SW) 2,355 -0.3 -7.4°
Reaches altitude 10° 06:43:00 10° 209° (SSW) 1,497 -1.2 -7.0°
Maximum altitude 06:46:02 32° 144° (SE) 754 -1.9 -6.5°
Drops below altitude 10° 06:49:05 10° 80° (E) 1,508 0.5 -6.0°
Sets 06:51:19 0° 70° (ENE) 2,377 1.3 -5.7°
